Flag for Malaysia Weather past 2 weeks in Kuala Lumpur, Malaysia

Now
95 °F

Partly sunny.


Feels Like: 113 °F
Forecast: 77 / 88 °F
Wind: 5 mph from East

Location: Sultan Abdul Aziz Shah-Subang

Current Time: Sep 4, 2015 at 4:05:22 PM

Latest Report: Sep 4, 2015 at 3:00 PM


Visibility: 2 mi

Pressure: 29.83 "Hg

Humidity: 60%

Dew point: 79 °F

Location of Kuala LumpurLocation

Historic Weather in Kuala Lumpur — Graph

°F

Kuala Lumpur temperature yesterday

Maximum temperature yesterday: 95 °F (at 2:00 PM)
Minimum temperature yesterday: 79 °F (at 4:00 AM)
Average temperature yesterday: 86 °F

Past Weeks' High & Low Weather Summary

 TemperatureHumidityPressure
High95 °F (Aug 28, 3:00 PM)94% (Aug 21, 2:00 AM)29.95 "Hg (Aug 21, 2:00 AM)
Low75 °F (Aug 28, 7:00 AM)49% (Sep 1, 1:00 PM)29.71 "Hg (Aug 29, 5:00 PM)
Average84 °F77%29.84 "Hg
* Reported Aug 20 2:00 PM — Sep 4 2:00 PM, Kuala Lumpur, Weather by CustomWeather, © 2015

Note: Actual official high and low records may vary slightly from our data, if they occured in-between our weather recording intervals... More about our weather records

Advertising

Kuala Lumpur weather history for previous 24 hours

 ConditionsComfort  
Time TempWeatherWind HumidityBarometerVisibility
2:00 PM
Fri, Sep 4
93 °FBroken clouds.7 mph59%29.86 "Hg4 mi
1:00 PM91 °FBroken clouds.8 mph63%29.89 "Hg4 mi
12:00 PM91 °FPartly sunny.8 mph59%29.92 "Hg4 mi
11:00 AM90 °FPartly sunny.3 mph67%29.92 "Hg3 mi
10:00 AM86 °FPartly sunny.2 mph75%29.95 "Hg2 mi
9:00 AM81 °FPartly sunny.2 mph89%29.92 "Hg2 mi
8:00 AM79 °FPassing clouds.2 mph94%29.92 "Hg1 mi
7:00 AM79 °FPartly cloudy.3 mph89%29.89 "Hg2 mi
6:00 AM79 °FPartly cloudy.3 mph89%29.89 "Hg4 mi
5:00 AM79 °FPartly cloudy.2 mph89%29.89 "Hg4 mi
4:00 AM81 °FPartly cloudy.2 mph89%29.86 "Hg4 mi
3:00 AM81 °FPartly cloudy.1 mph89%29.89 "Hg4 mi
2:00 AM82 °FPartly cloudy.2 mph84%29.89 "Hg4 mi
1:00 AM82 °FPartly cloudy.6 mph84%29.89 "Hg4 mi
12:00 AM84 °FPartly cloudy.5 mph79%29.89 "Hg4 mi
11:00 PM
Thu, Sep 3
82 °FPartly cloudy.3 mph89%29.92 "Hg4 mi
10:00 PM84 °FPassing clouds.6 mph79%29.89 "Hg4 mi
9:00 PM86 °FThunderstorms. Partly cloudy.1 mph79%29.86 "Hg4 mi
8:00 PM88 °FBroken clouds.12 mph66%29.83 "Hg4 mi
7:00 PM88 °FBroken clouds.12 mph70%29.80 "Hg3 mi
6:00 PM91 °FBroken clouds.14 mph63%29.77 "Hg3 mi
5:00 PM91 °FBroken clouds.12 mph67%29.77 "Hg3 mi
4:00 PM95 °FBroken clouds.6 mph56%29.77 "Hg4 mi
Weather by CustomWeather, © 2015

See weather overviewHow to use our weather pages